Holdrege, NE

3:57 PM CDT on August 19, 2017 (GMT -0500)
Brewster

Weather History for KHDE - August, 2013

Change the Weather History Date:

Wednesday, August 21, 2013

  Actual Average Record
Temperature  
Mean Temperature 82 °F -  
Max Temperature 97 °F 85 °F 98 °F (1959)
Min Temperature 67 °F 61 °F 47 °F (2016)
Cooling Degree Days 17    
Growing Degree Days 32 (Base 50)    
Moisture  
Dew Point 62 °F    
Average Humidity 55    
Maximum Humidity 85    
Minimum Humidity 30    
Precipitation  
Precipitation 0.00 in - - ()
Sea Level Pressure  
Sea Level Pressure 29.97 in    
Wind  
Wind Speed 11 mph (South)    
Max Wind Speed 16 mph    
Max Gust Speed 23 mph    
Visibility 10 miles    
Events Thunderstorm    
Averages and records for this station are not official NWS values.
T = Trace of Precipitation, MM = Missing Value Source: NWS Daily Summary

Daily Weather History Graph

Daily Weather History Graph

Search for Another Location

Airport or City:

Trip Planner

Search our weather history database for the weather conditions in past years. The results will help you decide how hot, cold, wet, or windy it might be!

Date:

Astronomy

Aug. 21, 2013 Rise Set
Actual Time 6:54 AM CDT 8:25 PM CDT
Civil Twilight 6:25 AM CDT 8:54 PM CDT
Nautical Twilight 5:50 AM CDT 9:28 PM CDT
Astronomical Twilight 5:14 AM CDT 10:05 PM CDT
Moon 8:35 PM CDT (8/21) 7:36 AM CDT (8/21)
Length of Visible Light 14h 28m
Length of Day
13h 31m
Waxing Gibbous, 99% of the Moon is Illuminated
Aug 21
Waxing Gibbous
Aug 28
Last Quarter
Sep 5
New
Sep 12
First Quarter
Sep 19
Full

Hourly Weather History & Observations

Time (CDT) Temp. Heat Index Dew Point Humidity Pressure Visibility Wind Dir Wind Speed Gust Speed Precip Events Conditions
12:15 AM 76.3 °F - 64.9 °F 68% 29.97 in 10.0 mi South 11.5 mph - N/A   Clear
12:35 AM 76.1 °F - 64.8 °F 68% 29.98 in 10.0 mi South 11.5 mph - N/A   Clear
12:55 AM 75.6 °F - 64.8 °F 69% 29.97 in 10.0 mi South 11.5 mph - N/A   Clear
1:15 AM 75.6 °F - 64.6 °F 69% 29.98 in 10.0 mi South 10.4 mph 16.1 mph N/A   Clear
1:35 AM 74.8 °F - 64.4 °F 70% 29.99 in 10.0 mi South 12.7 mph - N/A   Clear
1:55 AM 74.3 °F - 64.4 °F 71% 29.98 in 10.0 mi South 11.5 mph - N/A   Clear
2:15 AM 74.1 °F - 64.4 °F 72% 29.98 in 10.0 mi South 11.5 mph - N/A   Clear
2:35 AM 73.6 °F - 64.4 °F 73% 29.98 in 10.0 mi South 11.5 mph - N/A   Clear
2:55 AM 73.4 °F - 64.0 °F 72% 29.97 in 10.0 mi South 10.4 mph - N/A   Clear
3:15 AM 72.9 °F - 64.2 °F 74% 29.97 in 10.0 mi South 11.5 mph - N/A   Clear
3:35 AM 72.5 °F - 64.0 °F 75% 29.97 in 10.0 mi South 10.4 mph - N/A   Clear
3:55 AM 72.0 °F - 63.9 °F 76% 29.97 in 10.0 mi South 6.9 mph - N/A   Clear
4:15 AM 71.2 °F - 63.9 °F 77% 29.97 in 10.0 mi South 8.1 mph - N/A   Clear
4:35 AM 70.9 °F - 63.7 °F 78% 29.97 in 10.0 mi South 8.1 mph - N/A   Clear
4:55 AM 70.0 °F - 63.7 °F 80% 29.97 in 10.0 mi South 5.8 mph - N/A   Clear
5:15 AM 69.3 °F - 63.7 °F 82% 29.97 in 10.0 mi South 6.9 mph - N/A   Clear
5:35 AM 69.4 °F - 63.5 °F 81% 29.97 in 10.0 mi South 8.1 mph - N/A   Clear
5:55 AM 69.4 °F - 63.1 °F 80% 29.97 in 10.0 mi South 9.2 mph - N/A   Clear
6:15 AM 69.6 °F - 62.8 °F 79% 29.98 in 10.0 mi South 9.2 mph - N/A   Clear
6:35 AM 68.9 °F - 62.8 °F 81% 29.98 in 10.0 mi South 8.1 mph - N/A   Clear
6:55 AM 68.0 °F - 62.8 °F 83% 29.98 in 10.0 mi South 5.8 mph - N/A   Clear
7:15 AM 67.3 °F - 62.8 °F 85% 29.99 in 10.0 mi South 6.9 mph - N/A   Clear
7:35 AM 68.0 °F - 62.8 °F 83% 29.99 in 10.0 mi South 8.1 mph - N/A   Clear
7:55 AM 69.1 °F - 63.0 °F 81% 29.99 in 10.0 mi South 10.4 mph - N/A   Clear
8:15 AM 70.5 °F - 62.6 °F 76% 29.99 in 10.0 mi South 10.4 mph - N/A   Clear
8:35 AM 72.0 °F - 62.6 °F 72% 30.00 in 10.0 mi South 11.5 mph - N/A   Clear
8:55 AM 73.4 °F - 62.6 °F 69% 30.00 in 10.0 mi South 12.7 mph - N/A   Clear
9:15 AM 75.0 °F - 62.6 °F 65% 30.00 in 10.0 mi South 12.7 mph 17.3 mph N/A   Clear
9:35 AM 76.5 °F - 62.8 °F 62% 30.00 in 10.0 mi South 12.7 mph - N/A   Clear
9:55 AM 77.9 °F - 62.8 °F 60% 30.00 in 10.0 mi South 11.5 mph - N/A   Clear
10:15 AM 79.5 °F - 62.8 °F 56% 30.00 in 10.0 mi South 11.5 mph - N/A   Clear
10:35 AM 80.2 °F 81.6 °F 63.3 °F 56% 29.99 in 10.0 mi South 13.8 mph - N/A   Clear
10:55 AM 82.4 °F 83.7 °F 63.5 °F 53% 30.00 in 10.0 mi South 10.4 mph - N/A   Clear
11:15 AM 83.3 °F 84.4 °F 63.5 °F 51% 30.00 in 10.0 mi South 11.5 mph - N/A   Clear
11:35 AM 84.0 °F 85.2 °F 63.5 °F 50% 29.99 in 10.0 mi South 12.7 mph - N/A   Clear
11:55 AM 85.1 °F 86.1 °F 63.1 °F 48% 29.99 in 10.0 mi South 12.7 mph 17.3 mph N/A   Clear
12:15 PM 86.2 °F 87.1 °F 63.0 °F 46% 29.99 in 10.0 mi South 12.7 mph - N/A   Clear
12:35 PM 87.4 °F 88.2 °F 62.8 °F 44% 29.99 in 10.0 mi South 12.7 mph - N/A   Clear
12:55 PM 89.1 °F 90.0 °F 63.0 °F 42% 29.99 in 10.0 mi South 12.7 mph - N/A   Clear
1:15 PM 90.0 °F 91.0 °F 63.1 °F 41% 29.98 in 10.0 mi South 12.7 mph 17.3 mph N/A   Clear
1:35 PM 91.4 °F 92.1 °F 62.4 °F 38% 29.98 in 10.0 mi South 11.5 mph 18.4 mph N/A   Clear
1:55 PM 92.8 °F 93.1 °F 61.7 °F 35% 29.98 in 10.0 mi South 12.7 mph - N/A   Clear
2:15 PM 93.7 °F 94.1 °F 61.3 °F 34% 29.98 in 10.0 mi South 15.0 mph - N/A   Clear
2:35 PM 94.3 °F 94.9 °F 61.7 °F 34% 29.97 in 10.0 mi South 15.0 mph - N/A   Clear
2:55 PM 95.2 °F 95.9 °F 62.2 °F 33% 29.97 in 10.0 mi South 10.4 mph - N/A   Clear
3:15 PM 95.9 °F 96.1 °F 61.2 °F 31% 29.97 in 10.0 mi South 13.8 mph - N/A   Clear
3:35 PM 95.9 °F 96.1 °F 60.8 °F 31% 29.96 in 10.0 mi South 12.7 mph 18.4 mph N/A   Clear
3:55 PM 96.4 °F 97.0 °F 61.2 °F 31% 29.95 in 10.0 mi South 13.8 mph 19.6 mph N/A   Clear
4:15 PM 96.4 °F 97.4 °F 61.7 °F 32% 29.95 in 10.0 mi South 16.1 mph 23.0 mph N/A   Clear
4:35 PM 97.0 °F 97.4 °F 61.0 °F 30% 29.94 in 10.0 mi South 15.0 mph 23.0 mph N/A   Clear
4:55 PM 96.8 °F 97.1 °F 60.6 °F 30% 29.94 in 10.0 mi South 15.0 mph 19.6 mph N/A   Clear
5:15 PM 96.6 °F 96.8 °F 60.3 °F 30% 29.94 in 10.0 mi South 13.8 mph 20.7 mph N/A   Clear
5:35 PM 96.1 °F 96.0 °F 59.7 °F 30% 29.93 in 10.0 mi South 15.0 mph - N/A   Clear
5:55 PM 95.4 °F 94.9 °F 59.4 °F 30% 29.93 in 10.0 mi South 15.0 mph - N/A   Clear
6:15 PM 95.0 °F 94.4 °F 59.4 °F 30% 29.93 in 10.0 mi South 10.4 mph - N/A   Clear
6:35 PM 93.4 °F 93.2 °F 59.9 °F 33% 29.93 in 10.0 mi South 11.5 mph 18.4 mph N/A   Clear
6:55 PM 92.7 °F 92.5 °F 60.3 °F 34% 29.93 in 10.0 mi South 11.5 mph - N/A   Clear
7:15 PM 91.6 °F 91.0 °F 59.9 °F 34% 29.93 in 10.0 mi South 13.8 mph - N/A   Clear
7:35 PM 89.8 °F 89.4 °F 60.3 °F 37% 29.93 in 10.0 mi South 10.4 mph - N/A   Clear
7:55 PM 87.1 °F 87.0 °F 61.0 °F 41% 29.93 in 10.0 mi SSE 9.2 mph - N/A   Clear
8:15 PM 84.2 °F 85.0 °F 62.6 °F 48% 29.93 in 10.0 mi SSE 9.2 mph - N/A   Clear
8:35 PM 83.3 °F 84.3 °F 62.8 °F 50% 29.95 in 10.0 mi SSE 9.2 mph - N/A   Clear
8:55 PM 82.4 °F 83.4 °F 62.6 °F 51% 29.95 in 10.0 mi SSE 10.4 mph - N/A   Clear
9:15 PM 83.5 °F 83.9 °F 61.3 °F 47% 29.95 in 10.0 mi SSE 9.2 mph - N/A   Clear
9:35 PM 82.4 °F 83.0 °F 61.3 °F 49% 29.95 in 10.0 mi SSE 10.4 mph - N/A   Clear
9:55 PM 81.3 °F 82.2 °F 61.7 °F 51% 29.94 in 10.0 mi SSE 11.5 mph - N/A   Clear
10:15 PM 81.0 °F 81.9 °F 61.9 °F 52% 29.95 in 10.0 mi SSE 12.7 mph - N/A   Clear
10:35 PM 80.6 °F 81.6 °F 61.7 °F 52% 29.94 in 10.0 mi SSE 13.8 mph - N/A   Clear
10:55 PM 81.5 °F 82.1 °F 60.8 °F 49% 29.96 in 10.0 mi South 13.8 mph - N/A   Clear
11:15 PM 81.5 °F 82.1 °F 60.4 °F 49% 29.97 in 10.0 mi South 16.1 mph 21.9 mph N/A   Clear
11:35 PM 81.5 °F 82.0 °F 59.9 °F 48% 29.98 in 10.0 mi South 10.4 mph 21.9 mph N/A Thunderstorm Clear
11:55 PM 80.2 °F 81.0 °F 59.9 °F 50% 29.98 in 10.0 mi South 10.4 mph - N/A Thunderstorm Thunderstorm